Location: Unspecified
(0.0000°N, 0.0000°E)
Time: 03:45:04
(UTC+00:00)

Vanguard 1 - Pass Details

Date: 14 December 2023
Orbit: 653 x 3826 km, 34.3° (Epoch: 22 February)

Event Time Altitude Azimuth Distance (km) Brightness Sun altitude
Rises 19:58:56 0° 322° (NW) 6,535 14.4 -28.3°
Reaches altitude 10° 20:03:50 10° 332° (NNW) 5,934 14.0 -29.4°
Enters shadow 20:19:27 32° 24° (NNE) 5,148 13.2 -32.9°
Maximum altitude 20:21:02 32° 30° (NNE) 5,175 - -33.2°
Drops below altitude 10° 20:40:16 10° 86° (E) 6,717 - -37.4°
Sets 20:46:08 0° 95° (E) 7,477 - -38.7°
